Location: Roanoke
(37.2710°N, 79.9420°W)
Time: 07:51:47
(UTC-05:00)

S-56A Canister/Altair - Pass Details

Date: 24 November 2019
Orbit: 633 x 2499 km, 38.9° (Epoch: 06 December)

Event Time Altitude Azimuth Distance (km) Brightness Sun altitude
Rises 15:27:12 0° 241° (WSW) 6,010 13.7 15.3°
Reaches altitude 10° 15:31:26 10° 240° (WSW) 4,845 13.8 14.7°
Maximum altitude 15:44:33 74° 159° (SSE) 1,813 9.7 12.7°
Drops below altitude 10° 15:53:18 10° 76° (ENE) 3,353 10.3 11.3°
Sets 15:55:43 0° 75° (ENE) 4,111 10.7 10.9°
